Location: Wanzleben
(52.0609°N, 11.4408°E)
Time: 09:56:29
(UTC+00:00)

Cosmos 2263 Rocket - Pass Details

Date: 24 January 2021
Orbit: 825 x 847 km, 71.0° (Epoch: 24 February)

Event Time Altitude Azimuth Distance (km) Brightness Sun altitude
Rises 19:40:38 0° 297° (WNW) 3,406 6.3 -35.3°
Reaches altitude 10° 19:45:01 10° 328° (NNW) 2,467 5.1 -36.0°
Maximum altitude 19:47:01 12° 349° (N) 2,341 4.7 -36.3°
Enters shadow 19:47:30 12° 355° (N) 2,348 4.7 -36.3°
